Résultats de la compétition "Chpt de France Longue Distance Mur de Bretagne 23/08/2008 " du 23-08-2008 organisée par le comité départemental du 22 - Côtes-d'Armor
     
  Télécharger le fichier CSV.  
     
     

 Circuit "G : D60 - D65 - D70 - H70"

Licence Nom Prénom Temps CN
précédent
Score sur
la course
Différence
2401DEVILLENelly0:49:0143574406+49
1380DIEUDONNEMadeleine0:50:3042154277+62
1448KENANEAbdelkader0:51:5738614157+296
1000LEFOUESTJoseph0:52:5236894085+396
6491ROBERTFrancoise0:55:3834153882+467
5033THIEBAULTMonique0:59:5642283604-624
2557VOGTChristiane1:00:1833873582+195
1438BOUSQUETMichel1:05:4930583282+224
395BLASCONicole1:06:1733453258-87
3302JEANPIERREM-Therese1:10:1030143078+64
6826DUVOUXFrance1:12:4927202966+246
2124VANNIERVictorine1:13:1825352946+411
701ABISSEGisele1:14:0029592919-40
725LAURENTTherese1:14:5522922883+591
15630DIRRINGERM-Claude1:15:1128482873+25
2888MOULIEREM-Bernadett1:16:4428522815-37
15894LUDEWIG-JAMESCarol1:22:4517372610+873
2446RIFFARDM-Lucie1:27:4231702463-707
3179RICHARDClaudette1:28:2327472444-303
4389THIEBAULDGeorges1:29:4734612406-1055
14245RICHARDNicole1:29:4824632405-58
6980BIGOTYvette1:33:5625842299-285
368VESCOVOOdile1:37:3321892214+25
16634BAUDOINAnnie1:37:4422442210-34
1840BIGOTGeorges1:39:3130242170-854
5167BORRELLIBernadette1:41:5339532120-1833
4392DODINGenevieve1:43:0819042094+190
7910MOUGELDanielle1:43:3423592085-274
1106NATALIAnnie1:47:2427572011-746
295PEETERSSimone2:04:0031471742-1405
11368LAUNEYNoella2:06:0419821713-269
14021QUEYROIYvette2:12:3317321629-103
12343MALASSIGNEElfege2:16:1326291586-1043
1437BOUSQUETHuguette2:18:1717891562-227
1275ANTOINEJacqueline2:54:1815191239-280
1001LEFOUESTM-ThereseN/A19060-1906
934TESTOUDMadeleineN/A21510-2151
19940PRUNIER-LOUVETMona-MoniqueN/A15920-1592

  Indice de confiance du circuit (moyenne des différences entre CN et score sur la course des 3 à 10 premiers) : 103






 Retour